Regional Weather Roundup
Issued by NWS

Home | Current Version | Previous Version | Graphics & Text | Print | Product List | Glossary On
Versions: 1 2 3 4 5 6 7 8 9 10 11 12 13 14 15 16 17 18 19 20 21 22 23 24 25 26 27 28 29 30 31 32 33 34 35 36 37 38 39 40 41 42 43 44 45 46 47 48 49 50
000
ASUS43 KIND 272309
RWRIN

WEATHER ROUNDUP FOR INDIANA
NATIONAL WEATHER SERVICE INDIANAPOLIS IN
700 PM EDT WED JUL 27 2016

NOTE: "FAIR" INDICATES FEW OR NO CLOUDS BELOW 12,000 FEET WITH NO
SIGNIFICANT WEATHER AND/OR OBSTRUCTIONS TO VISIBILITY.

* - STATION DOES NOT REPORT WEATHER SUCH AS PRECIPITATION OR FOG.

+ - STATION NOT QUALITY CONTROLLED BY THE NATIONAL WEATHER SERVICE.
    USE DATA WITH CAUTION...ESPECIALLY DEWPOINT AND RELATIVE
    HUMIDITY OBSERVATIONS.

INZ001>003-010>013-019-020-280000-
NORTHWEST INDIANA

CITY           SKY/WX    TMP DP  RH WIND       PRES   REMARKS
GARY /AIRPORT/ MOSUNNY   84  66  54 E6        29.94S
KNOX *+        SUNNY     84  52  32 CALM      29.94S
LA PORTE +     SUNNY     87  68  53 CALM      29.95F
MICHIGAN CITY+ SUNNY     82  63  51 N6        29.95F
MONTICELLO +   CLOUDY    84  62  48 W3        29.94F
RENSSELAER +   MOSUNNY   82  66  57 SW5       29.95S
VALPARAISO     MOSUNNY   86  64  47 SW7       29.95S

$$

LMZ046-743>745-280000-
SOUTHERN LAKE MICHIGAN

STATION/POSITION TIME  TEMP    WIND        PRES    WAVE
                       AIR SEA DIR/SP/G            HT
                 (UTC) (F)     (DEG/KT/KT) (MB)    (FT)
BURNS HARBOR     2200   81      80/ 10/ 12 1014.2F
MICHIGAN CITY    2200   79      30/  7/  8   N/A
5NW MICH CITY    2300   78 78   60/  8/ 10   N/A     1

$$

INZ004-005-014>016-021>024-280000-
NORTH CENTRAL INDIANA

CITY           SKY/WX    TMP DP  RH WIND       PRES   REMARKS
ELKHART        SUNNY     84  72  65 N9        29.95S
GOSHEN         SUNNY     85  62  46 NE6       29.94S
LOGANSPORT +   CLOUDY    82  66  57 SW5       29.95F
PERU/GRISSOM   CLOUDY    84  67  55 W7        29.94S
ROCHESTER +    MOSUNNY   86  68  54 CALM      29.95S
SOUTH BEND     SUNNY     84  66  54 N7        29.95S
WARSAW +       MOSUNNY   84  63  48 NW5       29.95S

$$

INZ006>009-017-018-025>027-280000-
NORTHEAST INDIANA

CITY           SKY/WX    TMP DP  RH WIND       PRES   REMARKS
ANGOLA *+      SUNNY     88  63  42 NW6       29.95S
AUBURN +       SUNNY     88  54  31 W3        29.95S
FORT WAYNE     MOSUNNY   87  60  40 VRB3      29.94F
HUNTINGTON +   MOSUNNY   84  61  45 CALM      29.94F

$$

INZ028-029-035-036-043>045-051>053-280000-
WEST CENTRAL INDIANA

CITY           SKY/WX    TMP DP  RH WIND       PRES   REMARKS
CRAWFORDSVL +  PTSUNNY   79  71  76 CALM      29.95F
GREENCASTLE +  PTSUNNY   81  75  83 CALM      29.95F
LAFAYETTE      CLOUDY    84  67  56 S5        29.93F
TERRE HAUTE    MOSUNNY   84  70  62 E5        29.93F

$$

INZ030>032-037>040-046>048-054>057-064-065-280000-
CENTRAL INDIANA

CITY           SKY/WX    TMP DP  RH WIND       PRES   REMARKS
COLUMBUS       MOSUNNY   84  68  58 CALM      29.94S
FISHERS *+     CLOUDY    82  68  61 N3        29.94S
INDIANAPOLIS   PTSUNNY   84  66  54 W9        29.95S
-EAGLE CREEK   MOSUNNY   85  66  53 N8        29.94S
KOKOMO *+      CLOUDY    84  66  54 W6        29.95S
MARION +         N/A     81  68  63 W5        29.95F HAZE
MT COMFORT *+  CLOUDY    81  70  69 CALM      29.96S
SHELBYVILLE    MOSUNNY   87  67  51 CALM      29.94S
ZIONSVILLE +   MOSUNNY   78  69  73 N5        29.96S

$$

INZ033-034-041-042-049-050-058-059-280000-
EAST CENTRAL INDIANA

CITY           SKY/WX    TMP DP  RH WIND       PRES   REMARKS
MUNCIE         MOSUNNY   84  66  54 VRB6      29.95F

$$

INZ060-061-067>069-081>083-085>088-280000-
SOUTHWEST INDIANA

CITY           SKY/WX    TMP DP  RH WIND       PRES   REMARKS
EVANSVILLE     LGT RAIN  75  73  93 CALM      29.91F
HUNTINGBURG *+ CLOUDY    79  73  83 N5        29.92F
WASHINGTON +   CLOUDY    83  77  80 MISG      29.92F

$$

INZ062-063-066-070>080-084-089>092-280000-
SOUTH CENTRAL AND SOUTHEAST INDIANA

CITY           SKY/WX    TMP DP  RH WIND       PRES   REMARKS
BLOOMINGTON    CLOUDY    85  66  53 CALM      29.95F
MADISON *+     MOSUNNY   84  72  65 CALM      29.97S
NORTH VERNON + CLOUDY    84  77  79 CALM      29.95S
SEYMOUR +      CLOUDY    84  72  65 CALM      29.93F

$$





USA.gov is the U.S. government's official web portal to all federal, state and local government web resources and services.